| time (UTC) | temp F | wind direction | speed MPH | gust MPH | rain 1hr in | rain 24hr in | rain mn in | humidity % | barometer mb |
| 20260504050509 | 48 | 17 | 2.0 | 5.0 | 0.00 | 0.00 | 0.00 | 69 | 1012.2 |
| 20260504050016 | 48 | 30 | 3.0 | 5.0 | 0.00 | 0.00 | 0.00 | 69 | 1012.3 |
| 20260504045507 | 48 | 32 | 2.0 | 5.0 | 0.00 | 0.00 | 0.00 | 68 | 1012.4 |
| 20260504045007 | 48 | 17 | 2.0 | 5.0 | 0.00 | 0.00 | 0.00 | 68 | 1012.4 |
| 20260504044518 | 49 | 28 | 2.0 | 6.0 | 0.00 | 0.00 | 0.00 | 68 | 1012.4 |
| 20260504044007 | 49 | 37 | 3.0 | 6.0 | 0.00 | 0.00 | 0.00 | 67 | 1012.4 |
| 20260504043507 | 49 | 42 | 2.0 | 5.0 | 0.00 | 0.00 | 0.00 | 67 | 1012.4 |
| 20260504043038 | 49 | 31 | 2.0 | 6.0 | 0.00 | 0.00 | 0.00 | 67 | 1012.4 |
| 20260504042504 | 49 | 19 | 2.0 | 7.0 | 0.00 | 0.00 | 0.00 | 66 | 1012.4 |
| 20260504042008 | 50 | 40 | 3.0 | 7.0 | 0.00 | 0.00 | 0.00 | 66 | 1012.4 |
| 20260504041535 | 50 | 42 | 2.0 | 6.0 | 0.00 | 0.00 | 0.00 | 66 | 1012.4 |
| 20260504041009 | 50 | 59 | 3.0 | 6.0 | 0.00 | 0.00 | 0.00 | 66 | 1012.5 |
| 20260504040509 | 50 | 33 | 3.0 | 8.0 | 0.00 | 0.00 | 0.00 | 66 | 1012.7 |
| 20260504040018 | 50 | 58 | 4.0 | 8.0 | 0.00 | 0.00 | 0.00 | 66 | 1012.7 |
| 20260504035508 | 50 | 42 | 3.0 | 7.0 | 0.00 | 0.00 | 0.00 | 66 | 1012.7 |
| 20260504035005 | 50 | 15 | 3.0 | 8.0 | 0.00 | 0.00 | 0.00 | 66 | 1012.7 |
| 20260504034519 | 50 | 28 | 3.0 | 8.0 | 0.00 | 0.00 | 0.00 | 66 | 1012.8 |
| 20260504034010 | 50 | 51 | 3.0 | 8.0 | 0.00 | 0.00 | 0.00 | 66 | 1012.8 |
| 20260504033506 | 50 | 69 | 4.0 | 8.0 | 0.00 | 0.00 | 0.00 | 66 | 1012.8 |
| 20260504033019 | 50 | 65 | 4.0 | 8.0 | 0.00 | 0.00 | 0.00 | 66 | 1012.8 |
| 20260504032507 | 50 | 50 | 3.0 | 6.0 | 0.00 | 0.00 | 0.00 | 65 | 1012.7 |
| 20260504032011 | 50 | 28 | 3.0 | 5.0 | 0.00 | 0.00 | 0.00 | 65 | 1012.8 |
| 20260504031526 | 50 | 50 | 3.0 | 8.0 | 0.00 | 0.00 | 0.00 | 65 | 1012.8 |
| 20260504031006 | 50 | 59 | 4.0 | 8.0 | 0.00 | 0.00 | 0.00 | 65 | 1012.9 |
| 20260504030512 | 50 | 42 | 3.0 | 7.0 | 0.00 | 0.00 | 0.00 | 65 | 1012.8 |
| 20260504030032 | 50 | 76 | 3.0 | 8.0 | 0.00 | 0.00 | 0.00 | 64 | 1012.9 |
| 20260504025509 | 50 | 63 | 5.0 | 9.0 | 0.00 | 0.00 | 0.00 | 64 | 1012.9 |
| 20260504025006 | 50 | 82 | 5.0 | 10.0 | 0.00 | 0.00 | 0.00 | 64 | 1013.0 |
| 20260504024521 | 50 | 57 | 4.0 | 16.0 | 0.00 | 0.00 | 0.00 | 63 | 1013.0 |
| 20260504024008 | 50 | 72 | 5.0 | 16.0 | 0.00 | 0.00 | 0.00 | 63 | 1013.1 |
| 20260504023507 | 50 | 65 | 9.0 | 16.0 | 0.00 | 0.00 | 0.00 | 63 | 1013.2 |
| 20260504023003 | 50 | 77 | 6.0 | 16.0 | 0.00 | 0.00 | 0.00 | 63 | 1013.3 |
| 20260504022502 | 50 | 74 | 9.0 | 16.0 | 0.00 | 0.00 | 0.00 | 62 | 1013.3 |
| 20260504022002 | 50 | 76 | 4.0 | 12.0 | 0.00 | 0.00 | 0.00 | 61 | 1013.4 |
| 20260504021503 | 50 | 83 | 6.0 | 12.0 | 0.00 | 0.00 | 0.00 | 60 | 1013.3 |
| 20260504021001 | 50 | 49 | 7.0 | 14.0 | 0.00 | 0.00 | 0.00 | 60 | 1013.2 |
| 20260504020501 | 50 | 76 | 6.0 | 15.0 | 0.00 | 0.00 | 0.00 | 59 | 1013.2 |
| 20260504020003 | 51 | 98 | 7.0 | 20.0 | 0.00 | 0.00 | 0.00 | 58 | 1013.2 |
| 20260504015503 | 50 | 74 | 9.0 | 20.0 | 0.00 | 0.00 | 0.00 | 57 | 1013.1 |
| 20260504015004 | 50 | 80 | 6.0 | 11.0 | 0.00 | 0.00 | 0.00 | 57 | 1012.9 |
| 20260504014505 | 51 | 59 | 4.0 | 9.0 | 0.00 | 0.00 | 0.00 | 57 | 1012.9 |
| 20260504014004 | 51 | 36 | 4.0 | 9.0 | 0.00 | 0.00 | 0.00 | 56 | 1012.8 |
| 20260504013502 | 51 | 47 | 3.0 | 8.0 | 0.00 | 0.00 | 0.00 | 56 | 1012.6 |
| 20260504013004 | 51 | 55 | 3.0 | 9.0 | 0.00 | 0.00 | 0.00 | 56 | 1012.7 |
| 20260504012502 | 51 | 50 | 5.0 | 9.0 | 0.00 | 0.00 | 0.00 | 55 | 1012.7 |
| 20260504012003 | 51 | 61 | 4.0 | 9.0 | 0.00 | 0.00 | 0.00 | 55 | 1012.7 |
| 20260504011510 | 51 | 43 | 4.0 | 9.0 | 0.00 | 0.00 | 0.00 | 56 | 1012.7 |
| 20260504011001 | 51 | 36 | 4.0 | 9.0 | 0.00 | 0.00 | 0.00 | 55 | 1012.7 |
| 20260504010503 | 51 | 63 | 4.0 | 7.0 | 0.00 | 0.00 | 0.00 | 55 | 1012.8 |
| 20260504010003 | 51 | 26 | 4.0 | 7.0 | 0.00 | 0.00 | 0.00 | 55 | 1012.8 |
| 20260504005503 | 52 | 53 | 3.0 | 7.0 | 0.00 | 0.00 | 0.00 | 55 | 1012.7 |
| 20260504005004 | 52 | 42 | 3.0 | 9.0 | 0.00 | 0.00 | 0.00 | 55 | 1012.8 |
| 20260504004503 | 52 | 57 | 4.0 | 9.0 | 0.00 | 0.00 | 0.00 | 54 | 1012.7 |
| 20260504004002 | 52 | 36 | 4.0 | 9.0 | 0.00 | 0.00 | 0.00 | 54 | 1012.8 |
| 20260504003506 | 53 | 62 | 4.0 | 9.0 | 0.00 | 0.00 | 0.00 | 53 | 1012.8 |
| 20260504003005 | 53 | 55 | 5.0 | 9.0 | 0.00 | 0.00 | 0.00 | 53 | 1012.7 |
| 20260504002502 | 53 | 32 | 4.0 | 9.0 | 0.00 | 0.00 | 0.00 | 54 | 1012.7 |
| 20260504002004 | 54 | 38 | 4.0 | 11.0 | 0.00 | 0.00 | 0.00 | 53 | 1012.8 |
| 20260504001504 | 54 | 49 | 5.0 | 11.0 | 0.00 | 0.00 | 0.00 | 52 | 1012.8 |
| 20260504001002 | 54 | 51 | 5.0 | 10.0 | 0.00 | 0.00 | 0.00 | 51 | 1012.8 |
| 20260504000502 | 54 | 57 | 5.0 | 10.0 | 0.00 | 0.00 | 0.00 | 51 | 1012.8 |
| 20260504000004 | 55 | 74 | 5.0 | 10.0 | 0.00 | 0.00 | 0.00 | 51 | 1012.8 |
| 20260503235502 | 55 | 66 | 5.0 | 10.0 | 0.00 | 0.00 | 0.00 | 50 | 1012.9 |
| 20260503235003 | 55 | 88 | 3.0 | 10.0 | 0.00 | 0.00 | 0.00 | 51 | 1013.0 |
| 20260503234505 | 55 | 105 | 4.0 | 11.0 | 0.00 | 0.00 | 0.00 | 50 | 1013.0 |
| 20260503234003 | 55 | 74 | 7.0 | 13.0 | 0.00 | 0.00 | 0.00 | 48 | 1013.0 |
| 20260503233503 | 56 | 86 | 5.0 | 15.0 | 0.00 | 0.00 | 0.00 | 49 | 1013.0 |
| 20260503233003 | 56 | 64 | 9.0 | 17.0 | 0.00 | 0.00 | 0.00 | 47 | 1013.0 |
| 20260503232505 | 56 | 41 | 6.0 | 17.0 | 0.00 | 0.00 | 0.00 | 47 | 1013.0 |
| 20260503232003 | 57 | 44 | 8.0 | 16.0 | 0.00 | 0.00 | 0.00 | 47 | 1013.1 |
| 20260503231503 | 57 | 116 | 7.0 | 18.0 | 0.00 | 0.00 | 0.00 | 47 | 1013.1 |
| 20260503231003 | 57 | 70 | 6.0 | 18.0 | 0.00 | 0.00 | 0.00 | 47 | 1013.1 |
| 20260503230503 | 57 | 71 | 9.0 | 18.0 | 0.00 | 0.00 | 0.00 | 45 | 1013.0 |
| 20260503230004 | 58 | 110 | 8.0 | 18.0 | 0.00 | 0.00 | 0.00 | 45 | 1013.0 |
| 20260503225505 | 58 | 38 | 10.0 | 17.0 | 0.00 | 0.00 | 0.00 | 46 | 1012.9 |
| 20260503225005 | 58 | 76 | 10.0 | 21.0 | 0.00 | 0.00 | 0.00 | 46 | 1013.0 |
| 20260503224506 | 57 | 57 | 10.0 | 21.0 | 0.00 | 0.00 | 0.00 | 46 | 1013.0 |
| 20260503224002 | 57 | 44 | 11.0 | 25.0 | 0.00 | 0.00 | 0.00 | 46 | 1013.0 |
| 20260503223503 | 57 | 83 | 11.0 | 25.0 | 0.00 | 0.00 | 0.00 | 46 | 1012.9 |
| 20260503223008 | 57 | 65 | 8.0 | 15.0 | 0.00 | 0.00 | 0.00 | 46 | 1013.1 |
| 20260503222503 | 57 | 131 | 8.0 | 17.0 | 0.00 | 0.00 | 0.00 | 47 | 1013.1 |
| 20260503222003 | 57 | 101 | 8.0 | 17.0 | 0.00 | 0.00 | 0.00 | 47 | 1013.2 |
| 20260503221503 | 58 | 59 | 8.0 | 18.0 | 0.00 | 0.00 | 0.00 | 46 | 1013.1 |
| 20260503221003 | 58 | 69 | 11.0 | 18.0 | 0.00 | 0.00 | 0.00 | 45 | 1013.1 |
| 20260503220503 | 58 | 98 | 9.0 | 18.0 | 0.00 | 0.00 | 0.00 | 46 | 1013.1 |
| 20260503220007 | 58 | 40 | 9.0 | 18.0 | 0.00 | 0.00 | 0.00 | 44 | 1013.2 |
| 20260503215502 | 58 | 82 | 10.0 | 20.0 | 0.00 | 0.00 | 0.00 | 44 | 1013.1 |
| 20260503215002 | 59 | 101 | 12.0 | 20.0 | 0.00 | 0.00 | 0.00 | 43 | 1013.1 |
| 20260503214504 | 59 | 65 | 8.0 | 16.0 | 0.00 | 0.00 | 0.00 | 46 | 1013.2 |
| 20260503214003 | 59 | 82 | 6.0 | 19.0 | 0.00 | 0.00 | 0.00 | 44 | 1013.2 |
| 20260503213506 | 59 | 102 | 11.0 | 20.0 | 0.00 | 0.00 | 0.00 | 44 | 1013.2 |
| 20260503213006 | 58 | 114 | 11.0 | 20.0 | 0.00 | 0.00 | 0.00 | 44 | 1013.2 |
| 20260503212504 | 58 | 104 | 9.0 | 21.0 | 0.00 | 0.00 | 0.00 | 44 | 1013.2 |
| 20260503212004 | 58 | 87 | 8.0 | 23.0 | 0.00 | 0.00 | 0.00 | 44 | 1013.2 |
| 20260503211506 | 58 | 75 | 11.0 | 24.0 | 0.00 | 0.00 | 0.00 | 45 | 1013.2 |
| 20260503211003 | 58 | 55 | 8.0 | 24.0 | 0.00 | 0.00 | 0.00 | 45 | 1013.2 |
| 20260503210507 | 59 | 69 | 10.0 | 20.0 | 0.00 | 0.00 | 0.00 | 43 | 1013.3 |
| 20260503210006 | 59 | 63 | 10.0 | 18.0 | 0.00 | 0.00 | 0.00 | 44 | 1013.2 |
| 20260503205503 | 59 | 40 | 12.0 | 20.0 | 0.00 | 0.00 | 0.00 | 43 | 1013.1 |
| 20260503205004 | 59 | 59 | 13.0 | 20.0 | 0.00 | 0.00 | 0.00 | 43 | 1013.2 |
| 20260503204516 | 60 | 46 | 11.0 | 20.0 | 0.00 | 0.00 | 0.00 | 44 | 1013.1 |
| 20260503204004 | 60 | 101 | 9.0 | 20.0 | 0.00 | 0.00 | 0.00 | 42 | 1013.2 |
| 20260503203504 | 60 | 69 | 9.0 | 19.0 | 0.00 | 0.00 | 0.00 | 43 | 1013.2 |
| 20260503203007 | 59 | 90 | 11.0 | 23.0 | 0.00 | 0.00 | 0.00 | 46 | 1013.3 |
| 20260503202503 | 59 | 57 | 12.0 | 23.0 | 0.00 | 0.00 | 0.00 | 44 | 1013.3 |
| 20260503202004 | 59 | 81 | 9.0 | 22.0 | 0.00 | 0.00 | 0.00 | 44 | 1013.3 |
| 20260503201509 | 60 | 50 | 12.0 | 22.0 | 0.00 | 0.00 | 0.00 | 43 | 1013.5 |
| 20260503201004 | 60 | 53 | 10.0 | 19.0 | 0.00 | 0.00 | 0.00 | 43 | 1013.5 |
| 20260503200504 | 61 | 50 | 9.0 | 20.0 | 0.00 | 0.00 | 0.00 | 41 | 1013.5 |
| 20260503200008 | 61 | 97 | 12.0 | 20.0 | 0.00 | 0.00 | 0.00 | 44 | 1013.7 |
| 20260503195504 | 60 | 64 | 10.0 | 21.0 | 0.00 | 0.00 | 0.00 | 45 | 1013.8 |
| 20260503195004 | 59 | 42 | 12.0 | 21.0 | 0.00 | 0.00 | 0.00 | 47 | 1014.0 |
| 20260503194508 | 58 | 96 | 10.0 | 18.0 | 0.00 | 0.00 | 0.00 | 44 | 1014.0 |
| 20260503194005 | 59 | 49 | 7.0 | 20.0 | 0.00 | 0.00 | 0.00 | 44 | 1014.1 |
| 20260503193505 | 59 | 56 | 13.0 | 20.0 | 0.00 | 0.00 | 0.00 | 44 | 1014.1 |
| 20260503193013 | 59 | 92 | 8.0 | 19.0 | 0.00 | 0.00 | 0.00 | 43 | 1014.3 |
| 20260503192505 | 60 | 32 | 9.0 | 20.0 | 0.00 | 0.00 | 0.00 | 44 | 1014.4 |
| 20260503192004 | 60 | 108 | 12.0 | 20.0 | 0.00 | 0.00 | 0.00 | 44 | 1014.3 |
| 20260503191527 | 59 | 57 | 10.0 | 20.0 | 0.00 | 0.00 | 0.00 | 45 | 1014.3 |
| 20260503191004 | 59 | 65 | 12.0 | 20.0 | 0.00 | 0.00 | 0.00 | 47 | 1014.4 |
| 20260503190505 | 60 | 117 | 8.0 | 20.0 | 0.00 | 0.00 | 0.00 | 42 | 1014.5 |
| 20260503190008 | 60 | 105 | 9.0 | 22.0 | 0.00 | 0.00 | 0.00 | 45 | 1014.6 |
| 20260503185504 | 59 | 35 | 11.0 | 22.0 | 0.00 | 0.00 | 0.00 | 41 | 1014.7 |
| 20260503185005 | 60 | 117 | 11.0 | 20.0 | 0.00 | 0.00 | 0.00 | 41 | 1014.7 |
| 20260503184510 | 60 | 102 | 8.0 | 16.0 | 0.00 | 0.00 | 0.00 | 46 | 1014.9 |
| 20260503184006 | 60 | 53 | 6.0 | 18.0 | 0.00 | 0.00 | 0.00 | 45 | 1014.9 |
| 20260503183508 | 59 | 101 | 9.0 | 18.0 | 0.00 | 0.00 | 0.00 | 42 | 1014.9 |
| 20260503183009 | 59 | 98 | 10.0 | 17.0 | 0.00 | 0.00 | 0.00 | 41 | 1014.9 |
| 20260503182503 | 59 | 54 | 10.0 | 19.0 | 0.00 | 0.00 | 0.00 | 43 | 1014.9 |
| 20260503182005 | 59 | 73 | 9.0 | 20.0 | 0.00 | 0.00 | 0.00 | 45 | 1015.0 |
| 20260503181514 | 58 | 73 | 10.0 | 21.0 | 0.00 | 0.00 | 0.00 | 46 | 1015.0 |
| 20260503181005 | 59 | 101 | 12.0 | 21.0 | 0.00 | 0.00 | 0.00 | 43 | 1015.0 |
| 20260503180507 | 60 | 50 | 7.0 | 16.0 | 0.00 | 0.00 | 0.00 | 45 | 1015.1 |
| 20260503180014 | 60 | 109 | 8.0 | 18.0 | 0.00 | 0.00 | 0.00 | 47 | 1015.2 |
| 20260503175507 | 59 | 113 | 10.0 | 18.0 | 0.00 | 0.00 | 0.00 | 46 | 1015.2 |
| 20260503175002 | 59 | 40 | 10.0 | 20.0 | 0.00 | 0.00 | 0.00 | 45 | 1015.2 |
| 20260503174513 | 58 | 129 | 8.0 | 20.0 | 0.00 | 0.00 | 0.00 | 49 | 1015.3 |
| 20260503174006 | 59 | 79 | 7.0 | 19.0 | 0.00 | 0.00 | 0.00 | 47 | 1015.3 |
| 20260503173503 | 59 | 111 | 12.0 | 19.0 | 0.00 | 0.00 | 0.00 | 45 | 1015.3 |
| 20260503173011 | 59 | 88 | 7.0 | 18.0 | 0.00 | 0.00 | 0.00 | 49 | 1015.4 |
| 20260503172507 | 59 | 63 | 11.0 | 18.0 | 0.00 | 0.00 | 0.00 | 47 | 1015.4 |
| 20260503172006 | 58 | 36 | 6.0 | 20.0 | 0.00 | 0.00 | 0.00 | 50 | 1015.6 |
| 20260503171516 | 58 | 114 | 13.0 | 20.0 | 0.00 | 0.00 | 0.00 | 47 | 1015.8 |
| 20260503171003 | 58 | 60 | 10.0 | 19.0 | 0.00 | 0.00 | 0.00 | 52 | 1015.7 |
| 20260503170503 | 57 | 61 | 8.0 | 17.0 | 0.00 | 0.00 | 0.00 | 49 | 1015.8 |
| 20260503151002 | 51 | 131 | 7.0 | 18.0 | 0.00 | 0.00 | 0.00 | 55 | 1016.9 |
| 20260503150505 | 51 | 73 | 7.0 | 18.0 | 0.00 | 0.00 | 0.00 | 55 | 1017.0 |
| 20260503131003 | 45 | 60 | 5.0 | 10.0 | 0.00 | 0.00 | 0.00 | 66 | 1017.4 |
| 20260503130503 | 44 | 84 | 4.0 | 10.0 | 0.00 | 0.00 | 0.00 | 68 | 1017.3 |
| 20260503110510 | 32 | 61 | 3.0 | 5.0 | 0.00 | 0.00 | 0.00 | 92 | 1016.5 |
| 20260503090508 | 31 | 82 | 0.0 | 2.0 | 0.00 | 0.00 | 0.00 | 90 | 1016.2 |
| 20260503081524 | 33 | 84 | 1.0 | 3.0 | 0.00 | 0.01 | 0.00 | 89 | 1016.2 |
| 20260503081004 | 33 | 81 | 1.0 | 3.0 | 0.00 | 0.01 | 0.00 | 89 | 1016.2 |
| 20260503080503 | 33 | 81 | 1.0 | 3.0 | 0.00 | 0.01 | 0.00 | 89 | 1016.2 |
| 20260503072502 | 34 | 84 | 1.0 | 3.0 | 0.00 | 0.01 | 0.00 | 86 | 1016.2 |
| 20260503072004 | 34 | 84 | 1.0 | 3.0 | 0.00 | 0.01 | 0.00 | 86 | 1016.2 |
| 20260503071516 | 34 | 80 | 1.0 | 4.0 | 0.00 | 0.01 | 0.00 | 86 | 1016.2 |
| 20260503071004 | 35 | 63 | 2.0 | 4.0 | 0.00 | 0.01 | 0.00 | 86 | 1016.2 |
| 20260503070506 | 35 | 80 | 2.0 | 4.0 | 0.00 | 0.01 | 0.00 | 86 | 1016.1 |